EWG92Q EDDK-LEMG

Flight info

Callsign EWG92Q
Flight time 2h 40m
Altitude 36000
Route NVO Y868 NAVAK Z283 LNO DCT RASCA DCT FAMEN DCT BSN/N0437F370 DCT BUZIK DCT RESMI UN857 DISAK DCT ARKIP DCT ARNAV DCT LMG DCT UVELI DCT OSMOB DCT ARVID T424 PPN N857 MONTO N864 VULPE
Aircraft A320/M-SDE2E3FGIJ1RWXY/L

Departure

Time 2026-04-23 09:24
Airport Cologne Bonn Airport (EDDK)

Arrival

Time 2026-04-23 12:04
Airport Málaga-Costa del Sol Airport (LEMG)
Time Latitude Longitude Altitude Speed Heading
2026-04-23 08:54 50.87985 7.12375 232 ft 0 kts 216°
2026-04-23 09:14 50.87990 7.12379 232 ft 4 kts 216°
2026-04-23 09:14 50.88011 7.12405 233 ft 3 kts 217°
2026-04-23 09:14 50.88030 7.12424 232 ft 4 kts 196°
2026-04-23 09:14 50.88052 7.12423 232 ft 4 kts 139°
2026-04-23 09:15 50.88067 7.12392 232 ft 2 kts 120°
2026-04-23 09:15 50.88068 7.12390 232 ft 0 kts 120°
2026-04-23 09:17 50.88067 7.12392 232 ft 1 kts 120°
2026-04-23 09:18 50.88057 7.12419 232 ft 3 kts 121°
2026-04-23 09:18 50.88048 7.12441 232 ft 2 kts 120°
2026-04-23 09:18 50.88035 7.12477 233 ft 5 kts 120°
2026-04-23 09:18 50.88021 7.12515 233 ft 4 kts 120°
2026-04-23 09:19 50.88011 7.12545 233 ft 3 kts 120°
2026-04-23 09:19 50.87996 7.12588 232 ft 4 kts 115°
2026-04-23 09:19 50.87986 7.12646 232 ft 7 kts 98°
2026-04-23 09:19 50.87988 7.12700 234 ft 2 kts 81°
2026-04-23 09:20 50.87994 7.12738 240 ft 7 kts 74°
2026-04-23 09:20 50.88005 7.12802 238 ft 6 kts 75°
2026-04-23 09:20 50.88007 7.12888 239 ft 8 kts 96°
2026-04-23 09:20 50.87996 7.12965 239 ft 7 kts 108°
2026-04-23 09:21 50.87967 7.13025 239 ft 2 kts 137°
2026-04-23 09:23 50.87914 7.13102 239 ft 40 kts 137°
2026-04-23 09:23 50.87516 7.13679 240 ft 110 kts 137°
2026-04-23 09:23 50.86814 7.14696 266 ft 160 kts 137°
2026-04-23 09:23 50.85962 7.15951 749 ft 170 kts 136°
2026-04-23 09:24 50.85087 7.17223 1497 ft 172 kts 137°
2026-04-23 09:24 50.84151 7.18552 1956 ft 190 kts 137°
2026-04-23 09:24 50.83096 7.20011 2254 ft 214 kts 138°
2026-04-23 09:24 50.81915 7.21636 2786 ft 229 kts 137°
2026-04-23 09:25 50.80703 7.23310 3631 ft 234 kts 137°
2026-04-23 09:25 50.79253 7.24513 4480 ft 243 kts 171°
2026-04-23 09:25 50.77579 7.24197 5340 ft 248 kts 204°
2026-04-23 09:25 50.76193 7.22595 6186 ft 249 kts 232°
2026-04-23 09:26 50.75364 7.20210 7026 ft 249 kts 255°
2026-04-23 09:26 50.75094 7.17523 7796 ft 252 kts 273°
2026-04-23 09:26 50.75389 7.14727 8209 ft 272 kts 285°
2026-04-23 09:26 50.75823 7.11742 8910 ft 283 kts 284°
2026-04-23 09:27 50.76246 7.08676 9771 ft 288 kts 284°
2026-04-23 09:27 50.76663 7.05549 10606 ft 294 kts 283°
2026-04-23 09:27 50.77099 7.02270 10984 ft 316 kts 283°
2026-04-23 09:27 50.77568 6.98767 11454 ft 332 kts 283°
2026-04-23 09:28 50.78054 6.95153 12199 ft 338 kts 283°
2026-04-23 09:28 50.78547 6.91497 13011 ft 342 kts 283°
2026-04-23 09:28 50.79046 6.87794 13828 ft 345 kts 283°
2026-04-23 09:28 50.79542 6.84110 14556 ft 348 kts 283°
2026-04-23 09:29 50.80049 6.80336 15247 ft 352 kts 283°
2026-04-23 09:29 50.80562 6.76501 15908 ft 357 kts 283°
2026-04-23 09:29 50.81077 6.72637 16556 ft 362 kts 283°
2026-04-23 09:29 50.81600 6.68713 17215 ft 366 kts 283°
2026-04-23 09:30 50.82113 6.64794 17856 ft 371 kts 280°
2026-04-23 09:30 50.82328 6.60710 18479 ft 376 kts 271°
2026-04-23 09:30 50.82377 6.56555 19065 ft 380 kts 271°
2026-04-23 09:30 50.82425 6.52352 19615 ft 384 kts 271°
2026-04-23 09:31 50.82477 6.48106 20168 ft 388 kts 271°
2026-04-23 09:31 50.82531 6.43802 20720 ft 391 kts 271°
2026-04-23 09:31 50.82581 6.39479 21249 ft 395 kts 270°
2026-04-23 09:31 50.82632 6.35106 21778 ft 400 kts 270°
2026-04-23 09:32 50.82679 6.30692 22296 ft 404 kts 270°
2026-04-23 09:32 50.82720 6.26226 22820 ft 408 kts 270°
2026-04-23 09:32 50.82761 6.21721 23344 ft 412 kts 270°
2026-04-23 09:32 50.82804 6.17211 23861 ft 415 kts 270°
2026-04-23 09:33 50.82851 6.12608 24300 ft 419 kts 270°
2026-04-23 09:33 50.82893 6.07972 24719 ft 423 kts 269°
2026-04-23 09:33 50.82934 6.03301 25146 ft 426 kts 269°
2026-04-23 09:33 50.82816 5.98605 25542 ft 428 kts 258°
2026-04-23 09:34 50.81904 5.94146 25919 ft 426 kts 239°
2026-04-23 09:34 50.80225 5.90408 26295 ft 422 kts 221°
2026-04-23 09:34 50.77910 5.87646 26680 ft 416 kts 203°
2026-04-23 09:34 50.75303 5.85644 27068 ft 418 kts 202°
2026-04-23 09:35 50.72707 5.83495 27496 ft 422 kts 204°
2026-04-23 09:35 50.70128 5.81218 27901 ft 425 kts 205°
2026-04-23 09:35 50.67552 5.78887 28322 ft 428 kts 205°
2026-04-23 09:35 50.64956 5.76548 28726 ft 430 kts 205°
2026-04-23 09:36 50.62337 5.74224 29111 ft 433 kts 204°
2026-04-23 09:36 50.59797 5.71735 29485 ft 440 kts 211°
2026-04-23 09:36 50.57437 5.68588 29848 ft 448 kts 220°
2026-04-23 09:36 50.55356 5.64873 30200 ft 455 kts 225°
2026-04-23 09:37 50.53329 5.61014 30543 ft 458 kts 225°
2026-04-23 09:37 50.51296 5.57137 30870 ft 460 kts 225°
2026-04-23 09:37 50.49943 5.54558 31102 ft 460 kts 225°
2026-04-23 09:37 50.47904 5.50673 31466 ft 461 kts 225°
2026-04-23 09:38 50.45860 5.46790 31776 ft 462 kts 225°
2026-04-23 09:38 50.43807 5.42897 32156 ft 462 kts 225°
2026-04-23 09:38 50.41760 5.39014 32595 ft 460 kts 225°
2026-04-23 09:38 50.39720 5.35156 33013 ft 459 kts 225°
2026-04-23 09:39 50.37676 5.31302 33427 ft 458 kts 225°
2026-04-23 09:39 50.35640 5.27470 33826 ft 457 kts 224°
2026-04-23 09:39 50.33606 5.23644 34231 ft 457 kts 224°
2026-04-23 09:39 50.31575 5.19828 34603 ft 456 kts 224°
2026-04-23 09:40 50.29573 5.16069 34938 ft 455 kts 224°
2026-04-23 09:40 50.27543 5.12267 35253 ft 455 kts 225°
2026-04-23 09:40 50.25506 5.08458 35583 ft 455 kts 225°
2026-04-23 09:40 50.23474 5.04664 35915 ft 454 kts 225°
2026-04-23 09:41 50.21445 5.00889 36228 ft 453 kts 225°
2026-04-23 09:41 50.19420 4.97128 36378 ft 452 kts 225°
2026-04-23 09:41 50.17402 4.93385 36414 ft 448 kts 225°
2026-04-23 09:42 50.13395 4.85957 36397 ft 446 kts 225°
2026-04-23 09:42 50.09418 4.78602 36407 ft 445 kts 225°
2026-04-23 09:43 50.05447 4.71259 36403 ft 446 kts 225°
2026-04-23 09:43 50.01437 4.63876 36404 ft 446 kts 225°
2026-04-23 09:44 49.97414 4.56512 36396 ft 445 kts 225°
2026-04-23 09:44 49.93520 4.49054 36404 ft 446 kts 228°
2026-04-23 09:45 49.89709 4.41413 36395 ft 446 kts 228°
2026-04-23 09:45 49.85919 4.33861 36396 ft 446 kts 228°
2026-04-23 09:46 49.82068 4.26314 36390 ft 446 kts 227°
2026-04-23 09:46 49.78192 4.18785 36385 ft 446 kts 227°
2026-04-23 09:46 49.76261 4.15036 36576 ft 446 kts 227°
2026-04-23 09:47 49.74345 4.11314 36827 ft 447 kts 228°
2026-04-23 09:47 49.72408 4.07553 37088 ft 447 kts 228°
2026-04-23 09:47 49.70466 4.03788 37315 ft 448 kts 228°
2026-04-23 09:48 49.66577 3.96265 37388 ft 448 kts 229°
2026-04-23 09:48 49.62674 3.88743 37387 ft 448 kts 229°
2026-04-23 09:49 49.58775 3.81239 37389 ft 448 kts 229°
2026-04-23 09:49 49.54886 3.73773 37386 ft 448 kts 229°
2026-04-23 09:50 49.50973 3.66293 37386 ft 448 kts 229°
2026-04-23 09:50 49.47046 3.58814 37389 ft 448 kts 228°
2026-04-23 09:51 49.43138 3.51395 37383 ft 449 kts 229°
2026-04-23 09:51 49.39197 3.43921 37382 ft 449 kts 230°
2026-04-23 09:52 49.35259 3.36470 37378 ft 449 kts 229°
2026-04-23 09:52 49.31328 3.29063 37377 ft 449 kts 229°
2026-04-23 09:53 49.27369 3.21637 37375 ft 449 kts 229°
2026-04-23 09:53 49.23414 3.14221 37381 ft 450 kts 230°
2026-04-23 09:54 49.19463 3.06842 37363 ft 451 kts 229°
2026-04-23 09:54 49.14958 3.00151 37359 ft 451 kts 222°
2026-04-23 09:55 49.10368 2.93661 37356 ft 451 kts 222°
2026-04-23 09:55 49.05747 2.87155 37362 ft 452 kts 222°
2026-04-23 09:56 49.01115 2.80637 37366 ft 453 kts 223°
2026-04-23 09:56 48.96513 2.74161 37373 ft 453 kts 223°
2026-04-23 09:57 48.91863 2.67661 37372 ft 454 kts 223°
2026-04-23 09:57 48.87209 2.61168 37362 ft 454 kts 223°
2026-04-23 09:58 48.82555 2.54684 37355 ft 454 kts 224°
2026-04-23 09:58 48.77889 2.48195 37364 ft 453 kts 223°
2026-04-23 09:59 48.73226 2.41739 37363 ft 453 kts 223°
2026-04-23 09:59 48.68586 2.35326 37359 ft 453 kts 223°
2026-04-23 10:00 48.63912 2.28885 37359 ft 453 kts 223°
2026-04-23 10:00 48.59205 2.22617 37356 ft 454 kts 217°
2026-04-23 10:01 48.53589 2.18281 37351 ft 455 kts 197°
2026-04-23 10:01 48.47403 2.16166 37334 ft 456 kts 192°
2026-04-23 10:02 48.41223 2.14163 37307 ft 457 kts 193°
2026-04-23 10:02 48.34986 2.12139 37305 ft 457 kts 193°
2026-04-23 10:03 48.28707 2.10497 37303 ft 459 kts 183°
2026-04-23 10:03 48.22374 2.11254 37305 ft 460 kts 172°
2026-04-23 10:04 48.16011 2.12613 37297 ft 461 kts 174°
2026-04-23 10:04 48.09615 2.12462 37300 ft 459 kts 189°
2026-04-23 10:05 48.03310 2.11225 37306 ft 460 kts 189°
2026-04-23 10:05 47.96935 2.10010 37310 ft 460 kts 189°
2026-04-23 10:06 47.90609 2.08816 37311 ft 461 kts 189°
2026-04-23 10:06 47.84224 2.07601 37316 ft 462 kts 189°
2026-04-23 10:07 47.77835 2.06383 37268 ft 462 kts 189°
2026-04-23 10:07 47.71447 2.05162 37271 ft 462 kts 190°
2026-04-23 10:08 47.65110 2.03935 37266 ft 461 kts 193°
2026-04-23 10:08 47.59022 2.01144 37263 ft 456 kts 205°
2026-04-23 10:09 47.50181 1.95995 37257 ft 456 kts 205°
2026-04-23 10:09 47.44260 1.92572 37256 ft 456 kts 205°
2026-04-23 10:10 47.38374 1.89189 37261 ft 456 kts 205°
2026-04-23 10:10 47.32446 1.85792 37261 ft 456 kts 205°
2026-04-23 10:11 47.26526 1.82395 37261 ft 456 kts 205°
2026-04-23 10:11 47.20644 1.79010 37262 ft 456 kts 205°
2026-04-23 10:12 47.14698 1.75637 37248 ft 457 kts 205°
2026-04-23 10:12 47.08753 1.72310 37226 ft 458 kts 205°
2026-04-23 10:13 47.02835 1.68995 37229 ft 458 kts 205°
2026-04-23 10:13 46.96878 1.65644 37234 ft 458 kts 205°
2026-04-23 10:14 46.90915 1.62303 37208 ft 459 kts 206°
2026-04-23 10:14 46.84935 1.58963 37217 ft 459 kts 206°
2026-04-23 10:15 46.78994 1.55661 37220 ft 460 kts 206°
2026-04-23 10:15 46.73003 1.52337 37221 ft 460 kts 206°
2026-04-23 10:16 46.67000 1.49016 37214 ft 460 kts 206°
2026-04-23 10:16 46.61039 1.45718 37211 ft 460 kts 206°
2026-04-23 10:17 46.55035 1.42416 37186 ft 460 kts 206°
2026-04-23 10:17 46.49071 1.39147 37198 ft 460 kts 206°
2026-04-23 10:18 46.43072 1.35857 37206 ft 459 kts 206°
2026-04-23 10:18 46.37091 1.32573 37191 ft 459 kts 206°
2026-04-23 10:19 46.31131 1.29314 37197 ft 459 kts 206°
2026-04-23 10:19 46.25148 1.26052 37207 ft 459 kts 206°
2026-04-23 10:20 46.19157 1.22802 37202 ft 459 kts 206°
2026-04-23 10:20 46.13179 1.19563 37190 ft 458 kts 206°
2026-04-23 10:21 46.07250 1.16359 37195 ft 457 kts 205°
2026-04-23 10:21 46.02293 1.13685 37206 ft 455 kts 205°
2026-04-23 10:22 45.95389 1.09965 37202 ft 454 kts 205°
2026-04-23 10:22 45.90466 1.07327 37210 ft 453 kts 205°
2026-04-23 10:23 45.83618 1.03587 37203 ft 449 kts 210°
2026-04-23 10:23 45.79216 0.99731 37202 ft 438 kts 225°
2026-04-23 10:24 45.74590 0.94140 37193 ft 437 kts 225°
2026-04-23 10:24 45.69918 0.88553 37188 ft 437 kts 225°
2026-04-23 10:25 45.65252 0.82996 37184 ft 437 kts 225°
2026-04-23 10:25 45.60582 0.77440 37161 ft 436 kts 225°
2026-04-23 10:26 45.55940 0.71923 37165 ft 436 kts 225°
2026-04-23 10:26 45.51270 0.66392 37182 ft 435 kts 224°
2026-04-23 10:27 45.46613 0.60878 37187 ft 434 kts 224°
2026-04-23 10:27 45.41990 0.55418 37189 ft 434 kts 224°
2026-04-23 10:28 45.37327 0.49928 37180 ft 433 kts 224°
2026-04-23 10:28 45.32680 0.44462 37180 ft 433 kts 224°
2026-04-23 10:29 45.28065 0.39045 37175 ft 432 kts 224°
2026-04-23 10:29 45.23421 0.33619 37166 ft 431 kts 224°
2026-04-23 10:30 45.18780 0.28205 37147 ft 431 kts 224°
2026-04-23 10:30 45.14132 0.22790 37158 ft 431 kts 224°
2026-04-23 10:31 45.09494 0.17402 37164 ft 431 kts 224°
2026-04-23 10:31 45.04881 0.12055 37160 ft 431 kts 224°
2026-04-23 10:32 45.00235 0.06672 37159 ft 430 kts 224°
2026-04-23 10:32 44.95619 0.01334 37140 ft 430 kts 224°
2026-04-23 10:33 44.90964 -0.04020 37139 ft 430 kts 223°
2026-04-23 10:33 44.86321 -0.09354 37149 ft 429 kts 223°
2026-04-23 10:34 44.81720 -0.14634 37150 ft 429 kts 223°
2026-04-23 10:34 44.77082 -0.19952 37154 ft 429 kts 223°
2026-04-23 10:35 44.72462 -0.25223 37149 ft 429 kts 223°
2026-04-23 10:35 44.67807 -0.30516 37141 ft 429 kts 223°
2026-04-23 10:36 44.62929 -0.35305 37144 ft 434 kts 212°
2026-04-23 10:36 44.57561 -0.39266 37129 ft 434 kts 212°
2026-04-23 10:37 44.52232 -0.43166 37123 ft 434 kts 211°
2026-04-23 10:37 44.46873 -0.47086 37117 ft 434 kts 212°
2026-04-23 10:38 44.41534 -0.50991 37105 ft 434 kts 212°
2026-04-23 10:38 44.36170 -0.54908 37106 ft 433 kts 212°
2026-04-23 10:39 44.30851 -0.58795 37112 ft 433 kts 212°
2026-04-23 10:39 44.25479 -0.62710 37110 ft 434 kts 211°
2026-04-23 10:40 44.20149 -0.66572 37107 ft 433 kts 211°
2026-04-23 10:40 44.14794 -0.70446 37110 ft 433 kts 211°
2026-04-23 10:41 44.09440 -0.74321 37105 ft 433 kts 211°
2026-04-23 10:41 44.04132 -0.78157 37099 ft 432 kts 211°
2026-04-23 10:42 43.98785 -0.81999 37107 ft 431 kts 211°
2026-04-23 10:42 43.93444 -0.85842 37114 ft 431 kts 211°
2026-04-23 10:43 43.88120 -0.89660 37111 ft 431 kts 211°
2026-04-23 10:43 43.82824 -0.93446 37106 ft 430 kts 211°
2026-04-23 10:44 43.77509 -0.97242 37118 ft 430 kts 211°
2026-04-23 10:44 43.72182 -1.01038 37118 ft 430 kts 211°
2026-04-23 10:45 43.66866 -1.04825 37116 ft 429 kts 211°
2026-04-23 10:45 43.61586 -1.08574 37111 ft 429 kts 211°
2026-04-23 10:46 43.56269 -1.12348 37091 ft 429 kts 211°
2026-04-23 10:46 43.50942 -1.16123 37092 ft 429 kts 211°
2026-04-23 10:47 43.45650 -1.19855 37099 ft 428 kts 210°
2026-04-23 10:47 43.40335 -1.23585 37087 ft 428 kts 211°
2026-04-23 10:48 43.35030 -1.27312 37090 ft 427 kts 210°
2026-04-23 10:48 43.29773 -1.31001 37091 ft 426 kts 210°
2026-04-23 10:49 43.24476 -1.34707 37092 ft 426 kts 210°
2026-04-23 10:49 43.19218 -1.38379 37081 ft 424 kts 211°
2026-04-23 10:50 43.13945 -1.42058 37083 ft 425 kts 210°
2026-04-23 10:50 43.08672 -1.45728 37094 ft 425 kts 210°
2026-04-23 10:51 43.03430 -1.49377 37094 ft 425 kts 211°
2026-04-23 10:51 42.98156 -1.53053 37086 ft 425 kts 210°
2026-04-23 10:52 42.92889 -1.56713 37099 ft 423 kts 210°
2026-04-23 10:52 42.87663 -1.60340 37146 ft 423 kts 210°
2026-04-23 10:53 42.82398 -1.63978 37152 ft 422 kts 210°
2026-04-23 10:53 42.77153 -1.67598 37150 ft 422 kts 210°
2026-04-23 10:54 42.71940 -1.71185 37148 ft 422 kts 210°
2026-04-23 10:54 42.66673 -1.74737 37144 ft 422 kts 209°
2026-04-23 10:55 42.61405 -1.78265 37137 ft 422 kts 210°
2026-04-23 10:55 42.56134 -1.81797 37130 ft 422 kts 210°
2026-04-23 10:56 42.50872 -1.85320 37125 ft 421 kts 210°
2026-04-23 10:56 42.45614 -1.88829 37119 ft 421 kts 210°
2026-04-23 10:57 42.40380 -1.92318 37122 ft 421 kts 209°
2026-04-23 10:57 42.35120 -1.95814 37134 ft 420 kts 209°
2026-04-23 10:58 42.29873 -1.99309 37130 ft 419 kts 209°
2026-04-23 10:58 42.24666 -2.02790 37129 ft 419 kts 209°
2026-04-23 10:59 42.19429 -2.06264 37116 ft 418 kts 209°
2026-04-23 10:59 42.14192 -2.09704 37117 ft 418 kts 209°
2026-04-23 11:00 42.08963 -2.13141 37123 ft 418 kts 209°
2026-04-23 11:00 42.03764 -2.16577 37106 ft 418 kts 209°
2026-04-23 11:01 41.98523 -2.20029 37114 ft 418 kts 209°
2026-04-23 11:01 41.93316 -2.23446 37108 ft 418 kts 209°
2026-04-23 11:02 41.88097 -2.26856 37119 ft 417 kts 209°
2026-04-23 11:02 41.82874 -2.30269 37105 ft 416 kts 208°
2026-04-23 11:03 41.77691 -2.33650 37116 ft 416 kts 208°
2026-04-23 11:03 41.72486 -2.37041 37110 ft 415 kts 208°
2026-04-23 11:04 41.67281 -2.40421 37101 ft 415 kts 208°
2026-04-23 11:04 41.62086 -2.43794 37105 ft 414 kts 208°
2026-04-23 11:05 41.56927 -2.47144 37090 ft 414 kts 208°
2026-04-23 11:05 41.51741 -2.50487 37086 ft 414 kts 208°
2026-04-23 11:06 41.43962 -2.55513 37090 ft 413 kts 208°
2026-04-23 11:07 41.38798 -2.58839 37090 ft 412 kts 208°
2026-04-23 11:07 41.33659 -2.62139 37075 ft 412 kts 209°
2026-04-23 11:08 41.29609 -2.65513 37073 ft 408 kts 217°
2026-04-23 11:08 41.24968 -2.69806 37086 ft 408 kts 216°
2026-04-23 11:09 41.20298 -2.74094 37092 ft 407 kts 216°
2026-04-23 11:09 41.15658 -2.78341 37091 ft 406 kts 216°
2026-04-23 11:10 41.11008 -2.82606 37094 ft 406 kts 216°
2026-04-23 11:10 41.06362 -2.86871 37084 ft 406 kts 216°
2026-04-23 11:11 41.01733 -2.91102 37081 ft 406 kts 216°
2026-04-23 11:11 40.97074 -2.95345 37084 ft 406 kts 216°
2026-04-23 11:12 40.92413 -2.99578 37076 ft 406 kts 216°
2026-04-23 11:12 40.87753 -3.03802 37079 ft 406 kts 216°
2026-04-23 11:13 40.83121 -3.08005 37095 ft 405 kts 216°
2026-04-23 11:13 40.78473 -3.12223 37104 ft 404 kts 216°
2026-04-23 11:14 40.73865 -3.16400 37110 ft 403 kts 216°
2026-04-23 11:14 40.69242 -3.20574 37097 ft 403 kts 216°
2026-04-23 11:15 40.64609 -3.24739 37100 ft 402 kts 216°
2026-04-23 11:15 40.59978 -3.28901 37095 ft 403 kts 216°
2026-04-23 11:16 40.55366 -3.33035 37095 ft 403 kts 216°
2026-04-23 11:16 40.50724 -3.37196 37093 ft 403 kts 216°
2026-04-23 11:17 40.46082 -3.41350 37090 ft 403 kts 216°
2026-04-23 11:17 40.41475 -3.45464 37096 ft 403 kts 215°
2026-04-23 11:18 40.36831 -3.49601 37085 ft 402 kts 215°
2026-04-23 11:18 40.32221 -3.53708 37088 ft 401 kts 215°
2026-04-23 11:19 40.27599 -3.57822 37083 ft 401 kts 215°
2026-04-23 11:19 40.22971 -3.61930 37083 ft 401 kts 215°
2026-04-23 11:20 40.18385 -3.65998 37085 ft 401 kts 215°
2026-04-23 11:20 40.13748 -3.70094 37086 ft 401 kts 215°
2026-04-23 11:21 40.09129 -3.74166 37086 ft 400 kts 215°
2026-04-23 11:21 40.04539 -3.78213 37064 ft 400 kts 215°
2026-04-23 11:22 39.99916 -3.82279 37069 ft 400 kts 215°
2026-04-23 11:22 39.95292 -3.86340 37061 ft 400 kts 214°
2026-04-23 11:23 39.90677 -3.90386 37051 ft 399 kts 214°
2026-04-23 11:23 39.86064 -3.94427 37048 ft 399 kts 214°
2026-04-23 11:24 39.81457 -3.98457 37043 ft 398 kts 214°
2026-04-23 11:24 39.76871 -4.02446 37042 ft 400 kts 214°
2026-04-23 11:25 39.72234 -4.06478 37055 ft 401 kts 214°
2026-04-23 11:25 39.67601 -4.10518 37055 ft 400 kts 214°
2026-04-23 11:26 39.63027 -4.14509 37056 ft 398 kts 214°
2026-04-23 11:26 39.58411 -4.18510 37036 ft 399 kts 214°
2026-04-23 11:27 39.53785 -4.22499 37031 ft 399 kts 214°
2026-04-23 11:27 39.49163 -4.26490 37035 ft 399 kts 214°
2026-04-23 11:28 39.44573 -4.30458 37025 ft 399 kts 214°
2026-04-23 11:28 39.39939 -4.34452 37026 ft 399 kts 214°
2026-04-23 11:29 39.35316 -4.38428 37025 ft 399 kts 214°
2026-04-23 11:29 39.30695 -4.42387 37017 ft 400 kts 214°
2026-04-23 11:30 39.26045 -4.46372 37006 ft 400 kts 214°
2026-04-23 11:30 39.21127 -4.49680 37012 ft 401 kts 199°
2026-04-23 11:31 39.15661 -4.51058 37021 ft 403 kts 191°
2026-04-23 11:31 39.10115 -4.52219 37010 ft 403 kts 191°
2026-04-23 11:32 39.04599 -4.53378 37012 ft 404 kts 192°
2026-04-23 11:32 38.99043 -4.54544 37004 ft 404 kts 191°
2026-04-23 11:33 38.93483 -4.55714 37006 ft 404 kts 191°
2026-04-23 11:33 38.87966 -4.56864 37010 ft 404 kts 191°
2026-04-23 11:34 38.82419 -4.58022 37028 ft 403 kts 191°
2026-04-23 11:34 38.76867 -4.59179 37031 ft 403 kts 191°
2026-04-23 11:35 38.71366 -4.60318 37030 ft 402 kts 191°
2026-04-23 11:35 38.65844 -4.61470 37027 ft 402 kts 191°
2026-04-23 11:36 38.60321 -4.62612 37024 ft 401 kts 191°
2026-04-23 11:36 38.54803 -4.63752 37014 ft 401 kts 191°
2026-04-23 11:37 38.49295 -4.64891 37019 ft 400 kts 191°
2026-04-23 11:37 38.43800 -4.66027 37015 ft 400 kts 191°
2026-04-23 11:38 38.38319 -4.67163 37012 ft 400 kts 191°
2026-04-23 11:38 38.32825 -4.68286 37011 ft 400 kts 191°
2026-04-23 11:39 38.27297 -4.69417 36115 ft 409 kts 191°
2026-04-23 11:39 38.24503 -4.69988 35544 ft 408 kts 191°
2026-04-23 11:39 38.21728 -4.70551 35245 ft 399 kts 191°
2026-04-23 11:39 38.18993 -4.71107 34766 ft 395 kts 190°
2026-04-23 11:40 38.16287 -4.71663 34283 ft 392 kts 190°
2026-04-23 11:40 38.13594 -4.72217 33776 ft 390 kts 190°
2026-04-23 11:40 38.10915 -4.72768 33294 ft 386 kts 190°
2026-04-23 11:40 38.08300 -4.73303 32825 ft 383 kts 190°
2026-04-23 11:41 38.05685 -4.73837 32369 ft 378 kts 190°
2026-04-23 11:41 38.03103 -4.74365 31911 ft 374 kts 190°
2026-04-23 11:41 38.00543 -4.74887 31468 ft 371 kts 190°
2026-04-23 11:41 37.97994 -4.75408 31033 ft 368 kts 190°
2026-04-23 11:42 37.95472 -4.75922 30588 ft 363 kts 189°
2026-04-23 11:42 37.92992 -4.76421 30169 ft 359 kts 189°
2026-04-23 11:42 37.90563 -4.76910 29719 ft 356 kts 189°
2026-04-23 11:42 37.88129 -4.77405 29320 ft 351 kts 189°
2026-04-23 11:43 37.85734 -4.77894 28925 ft 346 kts 189°
2026-04-23 11:43 37.83368 -4.78378 28550 ft 341 kts 189°
2026-04-23 11:43 37.81018 -4.78855 28177 ft 349 kts 189°
2026-04-23 11:43 37.78636 -4.79565 27771 ft 355 kts 200°
2026-04-23 11:44 37.76417 -4.80935 27328 ft 356 kts 212°
2026-04-23 11:44 37.74518 -4.82895 26896 ft 357 kts 224°
2026-04-23 11:44 37.72973 -4.85357 26444 ft 358 kts 232°
2026-04-23 11:44 37.71527 -4.87913 26008 ft 356 kts 231°
2026-04-23 11:45 37.70092 -4.90431 25531 ft 355 kts 231°
2026-04-23 11:45 37.68649 -4.92949 25055 ft 354 kts 231°
2026-04-23 11:45 37.67205 -4.95462 24594 ft 352 kts 231°
2026-04-23 11:45 37.65770 -4.97960 24137 ft 351 kts 231°
2026-04-23 11:46 37.64335 -5.00451 23628 ft 350 kts 230°
2026-04-23 11:46 37.62712 -5.02719 23047 ft 346 kts 218°
2026-04-23 11:46 37.60759 -5.04483 22455 ft 344 kts 207°
2026-04-23 11:46 37.58689 -5.05936 21887 ft 344 kts 207°
2026-04-23 11:47 37.56589 -5.07409 21322 ft 345 kts 207°
2026-04-23 11:47 37.54492 -5.08887 20740 ft 342 kts 207°
2026-04-23 11:47 37.52415 -5.10244 20150 ft 330 kts 200°
2026-04-23 11:47 37.50238 -5.11007 19568 ft 320 kts 187°
2026-04-23 11:48 37.48046 -5.11143 19014 ft 312 kts 179°
2026-04-23 11:48 37.45890 -5.11102 18509 ft 311 kts 179°
2026-04-23 11:48 37.43745 -5.11067 17960 ft 313 kts 179°
2026-04-23 11:48 37.41554 -5.11034 17379 ft 316 kts 179°
2026-04-23 11:49 37.39343 -5.10943 16813 ft 319 kts 173°
2026-04-23 11:49 37.37214 -5.10303 16248 ft 312 kts 160°
2026-04-23 11:49 37.35305 -5.09076 15697 ft 305 kts 151°
2026-04-23 11:49 37.33497 -5.07719 15157 ft 299 kts 151°
2026-04-23 11:50 37.31727 -5.06398 14630 ft 293 kts 151°
2026-04-23 11:50 37.29978 -5.05099 14109 ft 290 kts 151°
2026-04-23 11:50 37.28218 -5.03798 13568 ft 296 kts 153°
2026-04-23 11:50 37.26434 -5.02560 13047 ft 293 kts 144°
2026-04-23 11:51 37.25117 -5.00612 12729 ft 295 kts 125°
2026-04-23 11:51 37.24017 -4.98445 12395 ft 293 kts 126°
2026-04-23 11:51 37.22905 -4.96322 12124 ft 288 kts 126°
2026-04-23 11:51 37.21783 -4.94237 11895 ft 288 kts 127°
2026-04-23 11:52 37.20662 -4.92154 11644 ft 288 kts 123°
2026-04-23 11:52 37.19940 -4.89806 11352 ft 292 kts 103°
2026-04-23 11:52 37.19845 -4.87240 11059 ft 294 kts 93°
2026-04-23 11:52 37.19867 -4.84708 10774 ft 293 kts 94°
2026-04-23 11:53 37.19440 -4.82277 10480 ft 282 kts 122°
2026-04-23 11:53 37.18093 -4.80600 10205 ft 272 kts 155°
2026-04-23 11:53 37.16275 -4.80132 9921 ft 267 kts 179°
2026-04-23 11:53 37.15043 -4.80126 9720 ft 266 kts 179°
2026-04-23 11:54 37.12597 -4.80127 9321 ft 263 kts 179°
2026-04-23 11:54 37.11363 -4.80126 9111 ft 262 kts 179°
2026-04-23 11:54 37.09532 -4.80119 8813 ft 262 kts 178°
2026-04-23 11:54 37.07740 -4.80108 8516 ft 259 kts 178°
2026-04-23 11:55 37.05940 -4.80090 8220 ft 258 kts 177°
2026-04-23 11:55 37.04137 -4.80071 7942 ft 258 kts 177°
2026-04-23 11:55 37.02360 -4.80049 7685 ft 252 kts 177°
2026-04-23 11:55 37.00620 -4.80029 7443 ft 246 kts 176°
2026-04-23 11:56 36.98932 -4.80011 7209 ft 244 kts 176°
2026-04-23 11:56 36.97241 -4.79992 6948 ft 242 kts 176°
2026-04-23 11:56 36.95561 -4.79976 6672 ft 241 kts 176°
2026-04-23 11:56 36.93888 -4.79960 6406 ft 239 kts 174°
2026-04-23 11:57 36.92284 -4.79566 6109 ft 233 kts 158°
2026-04-23 11:57 36.90749 -4.78886 5821 ft 232 kts 158°
2026-04-23 11:57 36.89261 -4.78233 5545 ft 226 kts 158°
2026-04-23 11:57 36.87783 -4.77591 5277 ft 223 kts 158°
2026-04-23 11:58 36.86370 -4.76855 5006 ft 218 kts 148°
2026-04-23 11:58 36.85046 -4.75949 4745 ft 216 kts 148°
2026-04-23 11:58 36.83733 -4.75063 4467 ft 213 kts 148°
2026-04-23 11:58 36.82431 -4.74187 4205 ft 212 kts 148°
2026-04-23 11:59 36.81130 -4.73311 3957 ft 214 kts 149°
2026-04-23 11:59 36.79820 -4.72430 3713 ft 213 kts 150°
2026-04-23 11:59 36.78520 -4.71557 3465 ft 212 kts 150°
2026-04-23 11:59 36.77376 -4.70452 3268 ft 207 kts 128°
2026-04-23 12:00 36.76669 -4.68906 3104 ft 203 kts 117°
2026-04-23 12:00 36.76033 -4.67352 2913 ft 198 kts 118°
2026-04-23 12:00 36.75416 -4.65855 2716 ft 190 kts 118°
2026-04-23 12:00 36.74829 -4.64431 2606 ft 178 kts 118°
2026-04-23 12:01 36.74270 -4.63096 2364 ft 171 kts 119°
2026-04-23 12:01 36.73726 -4.61797 2057 ft 167 kts 119°
2026-04-23 12:01 36.73199 -4.60540 1799 ft 160 kts 119°
2026-04-23 12:01 36.72694 -4.59333 1602 ft 156 kts 120°
2026-04-23 12:02 36.72207 -4.58174 1377 ft 148 kts 119°
2026-04-23 12:02 36.71750 -4.57083 1198 ft 139 kts 118°
2026-04-23 12:02 36.71310 -4.56034 1012 ft 134 kts 118°
2026-04-23 12:02 36.70881 -4.55012 825 ft 133 kts 118°
2026-04-23 12:03 36.70457 -4.53990 662 ft 134 kts 117°
2026-04-23 12:03 36.70025 -4.52972 501 ft 132 kts 116°
2026-04-23 12:03 36.69597 -4.51970 299 ft 131 kts 117°
2026-04-23 12:03 36.69182 -4.50965 131 ft 130 kts 117°
2026-04-23 12:04 36.68775 -4.49994 49 ft 115 kts 117°
2026-04-23 12:04 36.68482 -4.49297 47 ft 66 kts 117°
2026-04-23 12:04 36.68323 -4.48917 44 ft 42 kts 118°
2026-04-23 12:04 36.68217 -4.48684 40 ft 26 kts 128°
2026-04-23 12:05 36.68100 -4.48546 39 ft 20 kts 144°
2026-04-23 12:05 36.68014 -4.48481 37 ft 11 kts 160°
2026-04-23 12:05 36.67978 -4.48528 40 ft 7 kts 272°
2026-04-23 12:05 36.68005 -4.48604 39 ft 13 kts 297°
2026-04-23 12:06 36.68050 -4.48711 40 ft 15 kts 298°
2026-04-23 12:06 36.68098 -4.48825 40 ft 16 kts 297°
2026-04-23 12:06 36.68213 -4.49099 40 ft 18 kts 297°
2026-04-23 12:07 36.68267 -4.49228 40 ft 13 kts 297°
2026-04-23 12:07 36.68277 -4.49319 40 ft 11 kts 243°
2026-04-23 12:07 36.68214 -4.49393 41 ft 14 kts 221°
2026-04-23 12:07 36.68135 -4.49481 42 ft 16 kts 221°
2026-04-23 12:08 36.68051 -4.49574 40 ft 15 kts 221°
2026-04-23 12:08 36.67985 -4.49646 42 ft 6 kts 221°
2026-04-23 12:08 36.67959 -4.49657 42 ft 4 kts 167°
2026-04-23 12:08 36.67929 -4.49624 40 ft 6 kts 133°
2026-04-23 12:09 36.67899 -4.49584 42 ft 4 kts 133°
2026-04-23 12:09 36.67887 -4.49567 42 ft 1 kts 132°
2026-04-23 12:09 36.67886 -4.49566 42 ft 0 kts 132°